This is the latest recevied weather packets stored in our database for station/object SP9MUF-14. If no packets are shown the sender has not sent any weather packets the latest 10 day(s).
| Time | Temp. | Humidity | Pressure | Rain* | Wind** | Luminosity | Snow |
|---|---|---|---|---|---|---|---|
| 1787745853 | 21.67° C | 59% | 1019.7 hPa | 0 mm | - | 644 W/m² | - |
| 1787745249 | 22.78° C | 55% | 1019.7 hPa | 0 mm | - | 305 W/m² | - |
| 1787744946 | 21.67° C | 56% | 1019.8 hPa | 0 mm | - | 333 W/m² | - |
| 1787742529 | 22.78° C | 54% | 1019.9 hPa | 0 mm | - | 634 W/m² | - |
| 1787742226 | 22.78° C | 56% | 1020 hPa | 0 mm | - | 625 W/m² | - |
| 1787741614 | 21.67° C | 61% | 1020 hPa | 0 mm | - | 657 W/m² | - |
| 1787741311 | 21.67° C | 59% | 1020.1 hPa | 0 mm | - | 421 W/m² | - |
| 1787741009 | 21.67° C | 59% | 1020.2 hPa | 0 mm | - | 524 W/m² | - |
| 1787740707 | 21.67° C | 60% | 1020.2 hPa | 0 mm | - | 388 W/m² | - |
| 1787740405 | 20.56° C | 59% | 1020.2 hPa | 0 mm | - | 410 W/m² | - |
| 1787740103 | 20.56° C | 60% | 1020.2 hPa | 0 mm | - | 549 W/m² | - |
| 1787739800 | 20.56° C | 62% | 1020.4 hPa | 0 mm | - | 533 W/m² | - |
| 1787739498 | 20° C | 63% | 1020.4 hPa | 0 mm | - | 662 W/m² | - |
| 1787739196 | 18.89° C | 65% | 1020.5 hPa | 0 mm | - | 307 W/m² | - |
| 1787738893 | 18.89° C | 65% | 1020.5 hPa | 0 mm | - | 242 W/m² | - |
| 1787738591 | 18.89° C | 68% | 1020.5 hPa | 0 mm | - | 204 W/m² | - |
| 1787738289 | 18.89° C | 66% | 1020.6 hPa | 0 mm | - | 184 W/m² | - |
| 1787737684 | 18.89° C | 67% | 1020.6 hPa | 0 mm | - | 286 W/m² | - |
| 1787737382 | 18.89° C | 68% | 1020.6 hPa | 0 mm | - | 174 W/m² | - |
| 1787737080 | 18.89° C | 68% | 1020.5 hPa | 0 mm | - | 164 W/m² | - |
| 1787736777 | 18.89° C | 68% | 1020.6 hPa | 0 mm | - | 185 W/m² | - |
| 1787736475 | 18.89° C | 68% | 1020.6 hPa | 0 mm | - | 278 W/m² | - |
| 1787736173 | 18.89° C | 68% | 1020.6 hPa | 0 mm | - | 364 W/m² | - |
| 1787735870 | 18.89° C | 69% | 1020.7 hPa | 0 mm | - | 349 W/m² | - |
| 1787735568 | 17.78° C | 69% | 1020.7 hPa | 0 mm | - | 302 W/m² | - |
* Rain latest hour (hover to see other rain measurements)
** Current wind speed in m/s (hover to see current wind gust speed)